This demonstration page uses our WeatherBlox Daily Observations layout. Learn more.

39.92423, -83.80882

Hourly Observations for August 12, 2018

Temp ( °F °C ) Dew Point ( °F °C ) Humidity (%) Winds ( mph kmh ) Pressure ( in mb ) Visibility ( mi km ) Precip ( " mm )
12:50 am 00:50 Clear with Mist and Fog 64 18 64 18 100 100 Calm 30.03 1017 1.75 2.816345 0 0
12:56 am 00:56 Clear with Mist and Fog 63 17.2 63 17.2 100 100 Calm 30.04 1017 0.75 1.207005 0 0
1:14 am 01:14 Clear with Mist and Fog 63 17 63 17 100 100 Calm 30.06 1018 1.25 2.011675 0 0
1:21 am 01:21 Clear with Mist and Fog 63 17 63 17 100 100 Calm 30.06 1018 4 6.43736 0 0
1:56 am 01:56 Clear 64 17.8 64 17.8 100 100 N 3 6 30.05 1018 7 11.26538 0 0
3:17 am 03:17 Clear with Mist and Fog 63 17 63 17 100 100 Calm 30.06 1018 2.5 4.02335 0 0
3:24 am 03:24 Clear with Mist and Fog 63 17 63 17 100 100 N 3 6 30.06 1018 5 8.0467 0 0
3:56 am 03:56 Clear 61 16.1 61 16.1 100 100 Calm 30.05 1018 7 11.26538 0 0
4:56 am 04:56 Clear 62 16.7 62 16.7 100 100 Calm 30.05 1018 10 16.0934 0 0
5:56 am 05:56 Clear with Mist and Fog 60 15.6 60 15.6 100 100 Calm 30.05 1018 1.25 2.011675 0 0
5:59 am 05:59 Clear with Fog 61 16 61 16 100 100 Calm 30.06 1018 0.5 0.80467 0 0
6:07 am 06:07 Clear with Mist and Fog 61 16 61 16 100 100 Calm 30.06 1018 1 1.60934 0 0
6:09 am 06:09 Clear with Mist and Fog 61 16 61 16 100 100 Calm 30.06 1018 2 3.21868 0 0
6:17 am 06:17 Clear 61 16 61 16 100 100 Calm 30.06 1018 10 16.0934 0 0
6:56 am 06:56 Sunny 60 15.6 60 15.6 100 100 N 5 7 30.07 1018 7 11.26538 0 0
7:56 am 07:56 Sunny 62 16.7 62 16.7 100 100 N 5 7 30.08 1019 10 16.0934 0 0
8:56 am 08:56 Sunny 65 18.3 64 17.8 97 97 Calm 30.1 1019 10 16.0934 0 0
9:56 am 09:56 Sunny 71 21.7 65 18.3 81 81 NNW 3 6 30.11 1020 10 16.0934 0 0
10:56 am 10:56 Sunny 77 25 60 15.6 56 56 N 7 11 30.11 1020 10 16.0934 0 0
11:56 am 11:56 Sunny 77 25 56 13.3 48 48 VRB 5 7 30.12 1020 10 16.0934 0 0
12:56 pm 12:56 Sunny 79 26.1 61 16.1 54 54 ENE 7 11 30.12 1020 10 16.0934 0 0
1:51 pm 13:51 Sunny with Nearby Thunderstorms 81 27 59 15 48 48 Calm 30.06 1018 10 16.0934 0 0
1:56 pm 13:56 Sunny with Nearby Thunderstorms 81 27.2 61 16.1 51 51 VRB 5 7 30.11 1020 10 16.0934 0 0
2:17 pm 14:17 Mostly Sunny 81 27 63 17 54 54 NE 6 9 30.06 1018 10 16.0934 0 0
2:41 pm 14:41 Partly Cloudy with Nearby Thunderstorms 81 27 64 18 58 58 E 7 11 30.03 1017 10 16.0934 0 0
2:56 pm 14:56 Partly Cloudy 81 27.2 63 17.2 54 54 VRB 6 9 30.08 1019 10 16.0934 0 0
3:56 pm 15:56 Cloudy 76 24.4 66 18.9 72 72 W 8 13 30.08 1019 10 16.0934 0 0
4:56 pm 16:56 Sunny 74 23.3 63 17.2 69 69 NW 6 9 30.08 1019 10 16.0934 0 0
5:56 pm 17:56 Sunny 74 23.3 65 18.3 74 74 NNW 6 9 30.07 1018 10 16.0934 0 0
6:56 pm 18:56 Mostly Sunny 75 23.9 65 18.3 71 71 NNW 3 6 30.07 1018 10 16.0934 0 0
7:56 pm 19:56 Sunny 75 23.9 68 20 79 79 Calm 30.06 1018 10 16.0934 0 0
8:56 pm 20:56 Clear 71 21.7 67 19.4 87 87 Calm 30.07 1018 10 16.0934 0 0
9:56 pm 21:56 Clear 68 20 65 18.3 90 90 Calm 30.09 1019 10 16.0934 0 0
10:56 pm 22:56 Cloudy 67 19.4 66 18.9 97 97 Calm 30.1 1019 10 16.0934 0 0
11:56 pm 23:56 Clear 66 18.9 66 18.9 100 100 Calm 30.11 1020 10 16.0934 0 0

Powered by AerisWeather